Back to catalog

XIWANG-5 02

AliveAmateur RadioVLEO
NORAD 67069·PAYLOAD·🇨🇳 China

Launched Dec 13, 2025 from Jiuquan Satellite Launch Center

Loading…

Next Passes (next 24 hours)

TLE

FreshSource: Space-Track

Epoch: Sep 14, 2026, 14:32 UTC

1 67069U 25296A   26257.60624570  .00007484  00000-0  37286-3 0  9996
2 67069  41.3529 331.0493 0004877  16.3747 343.7232 15.17768914 41829

Track XIWANG-5 02 in real time with AllMySat

Download on the App Store